Regional Weather Roundup
Issued by NWS

Home | Current Version | Previous Version | Graphics & Text | Print | Product List | Glossary On
Versions: 1 2 3 4 5 6 7 8 9 10 11 12 13 14 15 16 17 18 19 20 21 22 23 24 25 26 27 28 29 30 31 32 33 34 35 36 37 38 39 40 41 42 43 44 45 46 47 48 49 50
000
ASUS45 KSLC 200510
RWRUT

UTAH REGIONAL WEATHER ROUNDUP
NATIONAL WEATHER SERVICE SALT LAKE CITY UT
1100 PM MDT TUE AUG 19 2014

UTZ001>011-023>025-200600-

NORTHERN UTAH

CITY           SKY/WX    TMP DP  RH WIND       PRES   REMARKS
HILL AFB       MOCLDY    64  52  63 E9        29.92S
LOGAN          CLEAR     64  51  62 N6        29.91R
OGDEN          MOCLDY    66  52  60 SE6       29.90R
PROVO AIRPORT  CLOUDY    63  55  77 CALM      29.94S
SALT LAKE CITY MOCLDY    69  57  65 SE7       29.89R
VERNAL         CLOUDY    61  59  93 NE3       29.99F
WENDOVER       CLOUDY    73  43  33 W7        29.89F
HEBER CITY     CLOUDY    59  54  82 CALM      29.98S
WEST JORDAN    CLOUDY    70  61  73 SW6       29.92S

$$

UTZ012>022-026-027-200600-

SOUTHERN UTAH

CITY           SKY/WX    TMP DP  RH WIND       PRES   REMARKS
BRYCE CANYON   FOG       50  50 100 W3        30.16R VSB 1
CEDAR CITY     CLEAR     60  54  80 S9        30.02R
MILFORD        CLOUDY    66  56  70 N7        29.98R
MOAB/CYNLANDS  CLOUDY    64  62  93 CALM      29.95R
PRICE          CLOUDY    62  57  83 CALM      30.01F
ST GEORGE      CLOUDY    72  63  73 SE3       29.91R

$$

REGIONAL REPORTS     COLORADO/ARIZONA

CITY           SKY/WX    TMP DP  RH WIND       PRES   REMARKS
CRAIG, CO      LGT RAIN  57  53  86 S8        30.04R
GRAND JUNCTION CLOUDY    62  60  93 SW3       29.97F
RIFLE          CLOUDY    61  57  87 SE5       30.03F
MONTROSE       CLOUDY    63  58  83 CALM      30.05F
CORTEZ         MOCLDY    61  58  90 CALM      30.07F
PAGE, AZ       PTCLDY    70  60  70 CALM      29.96S
GRAND CANYON     N/A    N/A N/A N/A MISG        N/A
KINGMAN        CLEAR     68  55  63 SE12      29.91R
FLAGSTAFF      CLOUDY    53  50  89 CALM      30.18S

$$

REGIONAL REPORTS    NEVADA/IDAHO/WYOMING

CITY           SKY/WX    TMP DP  RH WIND       PRES   REMARKS
LAS VEGAS, NV  MOCLDY    82  55  39 SE5       29.77R
ELY            CLOUDY    54  32  43 S6        30.07F
ELKO           CLOUDY    64  47  53 W9        29.95R
POCATELLO, ID  MOCLDY    59  55  87 NE9       29.94F
BURLEY         MOCLDY    66  51  58 E9        29.88R
EVANSTON, WY   PTCLDY    53  49  86 W3        30.05S
ROCK SPRINGS   CLOUDY    55  50  83 S5        30.02F

$$



USA.gov is the U.S. government's official web portal to all federal, state and local government web resources and services.